Location: Brachstadt
(48.6975°N, 10.6755°E)
Time: 23:26:16
(UTC+00:00)

NOSS 8 (F) - Pass Details

Date: 18 September 2020
Orbit: 384 x 1787 km, 63.3° (Epoch: 31 October)

Event Time Altitude Azimuth Distance (km) Brightness Sun altitude
Rises 18:06:21 0° 222° (SW) 2,474 8.6 -7.9°
Reaches altitude 10° 18:08:34 10° 223° (SW) 1,506 7.5 -8.3°
Maximum altitude 18:11:45 83° 310° (NW) 399 4.2 -8.8°
Drops below altitude 10° 18:14:46 10° 40° (NE) 1,424 6.7 -9.3°
Sets 18:16:48 0° 42° (NE) 2,321 7.7 -9.6°
